Time,TemperatureF,DewpointF,PressureIn,WindDirection,WindDirectionDegrees,WindSpeedMPH,WindSpeedGustMPH,Humidity,HourlyPrecipIn,Conditions,Clouds,dailyrainin,SoftwareType,DateUTC
2013-06-19 00:05:00,57.8,58.0,29.91,NNE,25,0.0,-999.0,99,-99.99,,,0.38,weatherlink.com 1.10,2013-06-19 04:05:00,
2013-06-19 00:20:00,57.8,58.0,29.91,NNE,25,0.0,-999.0,99,-99.99,,,0.38,weatherlink.com 1.10,2013-06-19 04:20:00,
2013-06-19 00:35:00,57.8,58.0,29.91,NNE,25,0.0,-999.0,99,-99.99,,,0.38,weatherlink.com 1.10,2013-06-19 04:35:00,
2013-06-19 00:51:00,57.7,58.0,29.90,NNE,25,0.0,-999.0,99,-99.99,,,0.38,weatherlink.com 1.10,2013-06-19 04:51:00,
2013-06-19 01:06:00,57.7,58.0,29.90,NNE,25,0.0,-999.0,99,-99.99,,,0.38,weatherlink.com 1.10,2013-06-19 05:06:00,
2013-06-19 01:21:00,57.6,57.0,29.90,NNE,25,0.0,-999.0,99,-99.99,,,0.39,weatherlink.com 1.10,2013-06-19 05:21:00,
2013-06-19 01:36:00,57.5,57.0,29.90,NNE,25,0.0,-999.0,99,-99.99,,,0.39,weatherlink.com 1.10,2013-06-19 05:36:00,
2013-06-19 01:51:00,57.5,57.0,29.90,NNE,25,0.0,-999.0,99,-99.99,,,0.39,weatherlink.com 1.10,2013-06-19 05:51:00,
2013-06-19 02:06:00,57.4,57.0,29.90,NNE,25,0.0,-999.0,99,-99.99,,,0.39,weatherlink.com 1.10,2013-06-19 06:06:00,
2013-06-19 02:21:00,57.3,57.0,29.90,NNE,25,0.0,-999.0,99,-99.99,,,0.39,weatherlink.com 1.10,2013-06-19 06:21:00,
2013-06-19 02:36:00,57.2,57.0,29.90,NNE,25,0.0,-999.0,99,-99.99,,,0.39,weatherlink.com 1.10,2013-06-19 06:36:00,
2013-06-19 02:51:00,57.2,57.0,29.89,NNE,25,0.0,-999.0,99,-99.99,,,0.39,weatherlink.com 1.10,2013-06-19 06:51:00,
2013-06-19 03:06:00,57.1,57.0,29.89,NNE,25,0.0,-999.0,99,-99.99,,,0.39,weatherlink.com 1.10,2013-06-19 07:06:00,
2013-06-19 03:21:00,56.9,57.0,29.89,NNE,25,0.0,-999.0,99,-99.99,,,0.39,weatherlink.com 1.10,2013-06-19 07:21:00,
2013-06-19 03:36:00,56.8,57.0,29.89,NNE,25,0.0,-999.0,99,-99.99,,,0.39,weatherlink.com 1.10,2013-06-19 07:36:00,
2013-06-19 03:51:00,56.5,56.0,29.89,NNE,25,0.0,-999.0,99,-99.99,,,0.39,weatherlink.com 1.10,2013-06-19 07:51:00,
2013-06-19 04:06:00,56.3,56.0,29.90,NNE,25,0.0,-999.0,99,-99.99,,,0.39,weatherlink.com 1.10,2013-06-19 08:06:00,
2013-06-19 04:21:00,56.3,56.0,29.89,NNE,25,0.0,-999.0,99,-99.99,,,0.39,weatherlink.com 1.10,2013-06-19 08:21:00,
2013-06-19 04:36:00,56.4,56.0,29.90,NNE,25,0.0,-999.0,99,-99.99,,,0.39,weatherlink.com 1.10,2013-06-19 08:36:00,
2013-06-19 04:51:00,56.4,56.0,29.90,NNE,25,0.0,-999.0,99,-99.99,,,0.39,weatherlink.com 1.10,2013-06-19 08:51:00,
2013-06-19 05:06:00,56.2,56.0,29.91,North,355,0.0,-999.0,99,-99.99,,,0.39,weatherlink.com 1.10,2013-06-19 09:06:00,
2013-06-19 05:21:00,56.1,56.0,29.91,North,355,1.0,-999.0,99,-99.99,,,0.39,weatherlink.com 1.10,2013-06-19 09:21:00,
2013-06-19 05:36:00,56.0,56.0,29.91,North,360,0.0,-999.0,99,-99.99,,,0.39,weatherlink.com 1.10,2013-06-19 09:36:00,
2013-06-19 05:51:00,55.9,56.0,29.91,North,360,0.0,-999.0,99,-99.99,,,0.39,weatherlink.com 1.10,2013-06-19 09:51:00,
2013-06-19 06:06:00,55.9,56.0,29.91,North,360,0.0,-999.0,99,-99.99,,,0.39,weatherlink.com 1.10,2013-06-19 10:06:00,
2013-06-19 06:21:00,55.4,55.0,29.92,NNW,329,0.0,-999.0,99,-99.99,,,0.00,weatherlink.com 1.10,2013-06-19 10:21:00,
2013-06-19 06:36:00,55.3,55.0,29.92,NNW,339,0.0,-999.0,99,-99.99,,,0.00,weatherlink.com 1.10,2013-06-19 10:36:00,
2013-06-19 06:51:00,55.3,55.0,29.93,ENE,76,0.0,-999.0,99,-99.99,,,0.00,weatherlink.com 1.10,2013-06-19 10:51:00,
2013-06-19 07:06:00,55.5,55.0,29.93,WSW,253,0.0,-999.0,99,-99.99,,,0.00,weatherlink.com 1.10,2013-06-19 11:06:00,
2013-06-19 07:21:00,55.8,55.0,29.94,NNE,29,0.0,-999.0,98,-99.99,,,0.00,weatherlink.com 1.10,2013-06-19 11:21:00,
2013-06-19 07:36:00,55.8,54.0,29.94,NNW,348,0.0,-999.0,95,-99.99,,,0.00,weatherlink.com 1.10,2013-06-19 11:36:00,
2013-06-19 07:51:00,55.9,54.0,29.95,North,5,1.0,-999.0,92,-99.99,,,0.00,weatherlink.com 1.10,2013-06-19 11:51:00,
2013-06-19 08:06:00,56.5,54.0,29.95,North,355,0.0,-999.0,92,-99.99,,,0.00,weatherlink.com 1.10,2013-06-19 12:06:00,
2013-06-19 08:21:00,57.4,55.0,29.96,North,9,0.0,-999.0,90,-99.99,,,0.00,weatherlink.com 1.10,2013-06-19 12:21:00,
2013-06-19 08:36:00,58.3,56.0,29.96,NNW,346,0.0,-999.0,92,-99.99,,,0.00,weatherlink.com 1.10,2013-06-19 12:36:00,
2013-06-19 08:51:00,59.5,55.0,29.97,North,355,0.0,-999.0,86,-99.99,,,0.00,weatherlink.com 1.10,2013-06-19 12:51:00,
2013-06-19 09:06:00,60.6,56.0,29.97,NNW,329,0.0,-999.0,84,-99.99,,,0.00,weatherlink.com 1.10,2013-06-19 13:06:00,
2013-06-19 09:21:00,61.8,56.0,29.97,WNW,299,1.0,-999.0,80,-99.99,,,0.00,weatherlink.com 1.10,2013-06-19 13:21:00,
2013-06-19 09:36:00,62.9,55.0,29.97,NW,323,0.0,-999.0,74,-99.99,,,0.00,weatherlink.com 1.10,2013-06-19 13:36:00,
2013-06-19 09:51:00,64.0,54.0,29.98,West,277,2.0,-999.0,71,-99.99,,,0.00,weatherlink.com 1.10,2013-06-19 13:51:00,
2013-06-19 10:07:00,65.6,56.0,29.98,ENE,71,0.0,-999.0,70,-99.99,,,0.00,weatherlink.com 1.10,2013-06-19 14:07:00,
2013-06-19 10:22:00,67.3,55.0,29.98,West,277,0.0,-999.0,66,-99.99,,,0.00,weatherlink.com 1.10,2013-06-19 14:22:00,
2013-06-19 10:37:00,67.7,56.0,29.99,NNW,331,0.0,-999.0,67,-99.99,,,0.00,weatherlink.com 1.10,2013-06-19 14:37:00,
2013-06-19 10:52:00,67.8,53.0,29.99,NNW,342,0.0,-999.0,60,-99.99,,,0.00,weatherlink.com 1.10,2013-06-19 14:52:00,
2013-06-19 11:07:00,69.0,55.0,29.99,NNW,328,0.0,-999.0,61,-99.99,,,0.00,weatherlink.com 1.10,2013-06-19 15:07:00,
2013-06-19 11:22:00,69.2,53.0,29.99,ENE,63,1.0,-999.0,56,-99.99,,,0.00,weatherlink.com 1.10,2013-06-19 15:22:00,
2013-06-19 11:37:00,70.0,53.0,29.99,NE,35,0.0,-999.0,56,-99.99,,,0.00,weatherlink.com 1.10,2013-06-19 15:37:00,
2013-06-19 11:52:00,70.2,51.0,29.99,NW,323,3.0,-999.0,50,-99.99,,,0.00,weatherlink.com 1.10,2013-06-19 15:52:00,
2013-06-19 12:07:00,70.3,52.0,29.99,North,355,0.0,-999.0,52,-99.99,,,0.00,weatherlink.com 1.10,2013-06-19 16:07:00,
2013-06-19 12:22:00,72.1,53.0,29.99,NNW,346,1.0,-999.0,51,-99.99,,,0.00,weatherlink.com 1.10,2013-06-19 16:22:00,
2013-06-19 12:37:00,71.2,49.0,29.99,NNW,338,0.0,-999.0,46,-99.99,,,0.00,weatherlink.com 1.10,2013-06-19 16:37:00,
2013-06-19 12:52:00,72.4,50.0,29.98,NNW,341,0.0,-999.0,45,-99.99,,,0.00,weatherlink.com 1.10,2013-06-19 16:52:00,
2013-06-19 13:07:00,71.1,51.0,29.98,West,262,0.0,-999.0,50,-99.99,,,0.00,weatherlink.com 1.10,2013-06-19 17:07:00,
2013-06-19 13:22:00,72.0,50.0,29.98,North,360,2.0,-999.0,46,-99.99,,,0.00,weatherlink.com 1.10,2013-06-19 17:22:00,
2013-06-19 13:38:00,74.1,52.0,29.98,NW,315,1.0,-999.0,46,-99.99,,,0.00,weatherlink.com 1.10,2013-06-19 17:38:00,
2013-06-19 13:53:00,72.6,49.0,29.98,WSW,246,0.0,-999.0,43,-99.99,,,0.00,weatherlink.com 1.10,2013-06-19 17:53:00,
2013-06-19 14:08:00,73.6,52.0,29.98,SW,221,0.0,-999.0,47,-99.99,,,0.00,weatherlink.com 1.10,2013-06-19 18:08:00,
2013-06-19 14:23:00,72.4,50.0,29.98,SW,223,1.0,-999.0,46,-99.99,,,0.00,weatherlink.com 1.10,2013-06-19 18:23:00,
2013-06-19 14:38:00,71.1,50.0,29.99,SW,224,0.0,-999.0,47,-99.99,,,0.00,weatherlink.com 1.10,2013-06-19 18:38:00,
2013-06-19 14:53:00,71.8,52.0,29.99,NW,324,1.0,-999.0,50,-99.99,,,0.00,weatherlink.com 1.10,2013-06-19 18:53:00,
2013-06-19 15:08:00,74.4,51.0,29.99,NE,54,0.0,-999.0,44,-99.99,,,0.00,weatherlink.com 1.10,2013-06-19 19:08:00,
2013-06-19 15:23:00,75.5,51.0,29.99,West,265,0.0,-999.0,43,-99.99,,,0.00,weatherlink.com 1.10,2013-06-19 19:23:00,
2013-06-19 15:38:00,76.8,51.0,29.99,NW,307,1.0,-999.0,41,-99.99,,,0.00,weatherlink.com 1.10,2013-06-19 19:38:00,
2013-06-19 15:53:00,73.1,49.0,29.99,WNW,300,1.0,-999.0,42,-99.99,,,0.00,weatherlink.com 1.10,2013-06-19 19:53:00,
2013-06-19 16:08:00,74.8,49.0,30.00,SW,215,0.0,-999.0,41,-99.99,,,0.00,weatherlink.com 1.10,2013-06-19 20:08:00,
2013-06-19 16:23:00,77.6,49.0,29.99,South,171,0.0,-999.0,37,-99.99,,,0.00,weatherlink.com 1.10,2013-06-19 20:23:00,
2013-06-19 16:38:00,74.9,50.0,30.00,SW,224,0.0,-999.0,41,-99.99,,,0.00,weatherlink.com 1.10,2013-06-19 20:38:00,
2013-06-19 16:53:00,74.6,48.0,30.00,NNW,329,0.0,-999.0,39,-99.99,,,0.00,weatherlink.com 1.10,2013-06-19 20:53:00,
2013-06-19 17:08:00,74.4,47.0,29.99,NNE,33,0.0,-999.0,38,-99.99,,,0.00,weatherlink.com 1.10,2013-06-19 21:08:00,
2013-06-19 17:23:00,74.2,48.0,29.99,SW,236,2.0,-999.0,39,-99.99,,,0.00,weatherlink.com 1.10,2013-06-19 21:23:00,
2013-06-19 17:38:00,74.2,46.0,29.99,WSW,253,4.0,-999.0,37,-99.99,,,0.00,weatherlink.com 1.10,2013-06-19 21:38:00,
2013-06-19 17:53:00,73.6,48.0,29.99,WSW,253,0.0,-999.0,40,-99.99,,,0.00,weatherlink.com 1.10,2013-06-19 21:53:00,
2013-06-19 18:08:00,72.9,47.0,30.00,ENE,58,0.0,-999.0,40,-99.99,,,0.00,weatherlink.com 1.10,2013-06-19 22:08:00,
2013-06-19 18:23:00,72.9,48.0,30.00,West,277,0.0,-999.0,41,-99.99,,,0.00,weatherlink.com 1.10,2013-06-19 22:23:00,
2013-06-19 18:38:00,72.4,49.0,30.01,NNE,24,0.0,-999.0,44,-99.99,,,0.00,weatherlink.com 1.10,2013-06-19 22:38:00,
2013-06-19 18:53:00,71.7,50.0,30.01,NNE,24,0.0,-999.0,46,-99.99,,,0.00,weatherlink.com 1.10,2013-06-19 22:53:00,
2013-06-19 19:08:00,70.7,47.0,30.01,North,5,0.0,-999.0,43,-99.99,,,0.00,weatherlink.com 1.10,2013-06-19 23:08:00,
2013-06-19 19:23:00,69.2,50.0,30.02,North,5,0.0,-999.0,51,-99.99,,,0.00,weatherlink.com 1.10,2013-06-19 23:23:00,
2013-06-19 19:38:00,67.4,51.0,30.02,North,5,0.0,-999.0,56,-99.99,,,0.00,weatherlink.com 1.10,2013-06-19 23:38:00,
2013-06-19 19:53:00,65.7,53.0,30.03,North,5,0.0,-999.0,63,-99.99,,,0.00,weatherlink.com 1.10,2013-06-19 23:53:00,
2013-06-19 20:08:00,64.2,55.0,30.04,North,5,0.0,-999.0,72,-99.99,,,0.00,weatherlink.com 1.10,2013-06-20 00:08:00,
2013-06-19 20:23:00,62.8,53.0,30.04,North,5,0.0,-999.0,70,-99.99,,,0.00,weatherlink.com 1.10,2013-06-20 00:23:00,
2013-06-19 20:38:00,62.1,54.0,30.05,North,5,0.0,-999.0,74,-99.99,,,0.00,weatherlink.com 1.10,2013-06-20 00:38:00,
2013-06-19 20:53:00,60.9,54.0,30.06,North,5,0.0,-999.0,78,-99.99,,,0.00,weatherlink.com 1.10,2013-06-20 00:53:00,
2013-06-19 21:08:00,60.4,55.0,30.07,North,5,0.0,-999.0,82,-99.99,,,0.00,weatherlink.com 1.10,2013-06-20 01:08:00,
2013-06-19 21:23:00,59.6,55.0,30.07,North,5,0.0,-999.0,84,-99.99,,,0.00,weatherlink.com 1.10,2013-06-20 01:23:00,
2013-06-19 21:38:00,58.7,54.0,30.08,North,5,0.0,-999.0,85,-99.99,,,0.00,weatherlink.com 1.10,2013-06-20 01:38:00,
2013-06-19 21:53:00,58.1,54.0,30.09,North,5,0.0,-999.0,86,-99.99,,,0.00,weatherlink.com 1.10,2013-06-20 01:53:00,
2013-06-19 22:08:00,57.2,54.0,30.09,North,5,0.0,-999.0,88,-99.99,,,0.00,weatherlink.com 1.10,2013-06-20 02:08:00,
2013-06-19 22:23:00,56.5,53.0,30.09,North,5,0.0,-999.0,89,-99.99,,,0.00,weatherlink.com 1.10,2013-06-20 02:23:00,
2013-06-19 22:38:00,56.0,53.0,30.10,North,5,0.0,-999.0,90,-99.99,,,0.00,weatherlink.com 1.10,2013-06-20 02:38:00,
2013-06-19 22:53:00,55.3,53.0,30.10,North,5,0.0,-999.0,91,-99.99,,,0.00,weatherlink.com 1.10,2013-06-20 02:53:00,
2013-06-19 23:08:00,55.0,53.0,30.11,North,5,0.0,-999.0,92,-99.99,,,0.00,weatherlink.com 1.10,2013-06-20 03:08:00,
2013-06-19 23:23:00,54.8,53.0,30.11,North,5,0.0,-999.0,93,-99.99,,,0.00,weatherlink.com 1.10,2013-06-20 03:23:00,
2013-06-19 23:39:00,54.5,53.0,30.11,North,5,0.0,-999.0,94,-99.99,,,0.00,weatherlink.com 1.10,2013-06-20 03:39:00,
2013-06-19 23:54:00,54.0,52.0,30.12,North,5,0.0,-999.0,94,-99.99,,,0.00,weatherlink.com 1.10,2013-06-20 03:54:00,